RH
10 17 30 29 38 47 47 43 16 9 14 28 39 42 40 32 12 10 15 36 50 45 15 12 8 3 2 3 6 4 3 2 2 2 2 4 13 13 13 13 11 10 10
8 8 18 30 30 32 50 50 47 20 16 18 27 35 47 46 35 11 10 24 41 25 9 9 11 5 2 2 3 3 3 2 2 2 2 2 6 15 13 12 13 13 12
4 5 10 14 24 32 35 43 45 45 25 13 14 22 33 42 45 33 13 9 16 22 9 7 11 8 3 2 2 3 3 2 2 2 2 2 3 7 12 12 12 14 14
4 4 4 10 15 19 26 28 33 43 43 34 9 12 21 29 37 44 43 17 10 7 6 6 8 11 8 3 2 2 2 2 2 2 2 2 3 3 6 11 11 12 15
5 4 5 5 7 6 6 9 17 26 41 42 43 18 9 14 31 36 48 50 24 11 9 5 6 10 11 8 4 2 2 2 2 2 3 3 3 3 4 6 10 10 13
7 7 6 6 6 4 4 4 6 9 15 32 39 43 39 8 10 28 44 56 50 21 13 10 6 7 11 12 10 7 2 2 2 3 3 3 3 4 6 8 8 10 11
8 8 8 8 8 5 5 5 5 5 6 9 18 31 37 43 24 9 26 45 61 53 19 10 10 8 8 12 11 10 10 3 2 3 3 3 4 8 13 13 10 8 11
8 9 10 10 11 11 8 6 6 6 6 6 8 13 19 25 40 37 13 18 37 61 57 28 10 9 10 10 12 10 11 12 6 2 3 3 4 7 13 14 14 8 8
10 8 8 9 12 12 12 11 7 7 8 7 6 6 6 7 12 35 48 34 16 27 49 51 38 11 10 10 11 12 11 11 12 10 3 2 3 4 11 15 15 15 11
15 14 14 13 10 9 10 12 12 9 8 8 9 8 8 7 6 5 17 49 61 54 23 35 42 44 14 11 10 11 12 12 12 12 11 4 2 3 6 10 15 16 15
21 21 19 17 15 14 13 11 10 12 11 8 8 9 10 9 9 9 7 6 14 43 73 72 46 41 38 22 15 11 11 10 12 12 12 11 5 3 3 5 9 14 15
15 14 16 20 22 20 17 15 14 12 10 10 10 8 8 9 10 10 10 9 8 9 19 62 81 82 66 49 37 25 18 12 9 8 11 12 10 4 3 3 4 9 14
31 28 26 27 25 21 19 20 20 17 14 13 11 10 8 8 8 9 9 10 10 10 8 8 34 66 67 81 81 66 46 30 16 11 6 9 10 8 4 3 3 5 8
16 17 19 16 17 22 23 26 25 23 22 20 16 13 12 11 10 8 8 9 10 10 11 10 8 12 33 49 73 88 87 63 40 26 13 7 7 7 7 4 4 4 5
12 12 8 5 4 4 4 5 5 4 4 5 12 19 21 17 13 12 11 11 11 11 11 12 18 15 12 15 26 60 87 94 86 58 36 18 9 6 6 5 4 4 5
6 9 7 5 3 2 2 2 2 4 3 4 5 2 2 6 17 22 17 13 12 12 12 12 13 14 22 21 18 18 28 53 88 96 90 54 28 14 8 7 4 4 4
8 6 5 5 5 4 3 3 3 5 8 8 7 9 8 8 5 2 5 19 20 15 14 12 12 11 14 23 33 31 19 16 30 52 69 94 68 43 26 12 8 5 4
8 6 5 5 4 4 3 4 3 6 7 8 9 11 10 10 10 10 10 9 3 8 19 20 18 15 13 12 14 37 41 32 19 28 49 55 68 92 66 55 22 12 8
6 7 6 5 4 3 3 3 3 5 11 13 9 6 9 11 10 10 10 10 12 9 2 4 14 20 20 19 17 16 33 40 41 39 36 53 62 60 78 80 73 40 23
5 4 4 4 4 4 4 4 4 4 4 6 11 12 11 9 12 12 12 11 11 12 8 3 2 2 11 21 22 22 23 23 34 44 49 52 55 66 65 56 71 92 68
8 8 7 7 7 7 7 8 8 9 9 8 7 7 10 11 11 12 12 12 11 14 12 6 3 2 2 2 8 18 22 22 20 18 26 43 48 59 73 75 61 51 73
10 10 11 12 11 9 9 9 9 9 8 8 10 10 10 10 10 11 12 13 14 15 17 14 13 7 5 4 3 2 9 18 20 21 20 20 37 40 49 66 76 69 72
12 12 12 10 10 10 10 10 10 10 10 10 10 9 11 12 13 12 11 13 14 15 17 15 11 9 8 6 6 4 2 3 16 21 22 21 19 16 23 42 57 73 70
7 7 7 7 7 6 6 6 6 6 7 7 7 7 8 7 11 14 12 12 14 16 17 19 14 8 6 6 7 6 6 3 3 10 16 20 22 21 20 25 34 35 49
7 6 6 6 6 6 6 6 6 5 5 5 5 5 8 10 10 11 14 12 13 15 16 18 17 8 8 7 6 7 8 7 4 2 5 16 20 24 24 23 21 19 34
8 8 7 7 7 7 7 6 6 6 6 6 6 6 6 5 7 10 11 16 17 15 15 17 18 13 11 14 7 7 8 8 6 4 4 5 13 19 25 24 23 22 20
Wind_Speed
10 9 9 9 10 8 8 6 6 7 8 8 7 6 5 5 5 7 7 7 7 8 6 4 2 2 6 10 12 13 12 13 10 9 9 10 11 11 10 10 8 8 8
10 11 11 12 12 12 11 9 8 9 9 10 10 10 8 7 6 7 10 10 10 10 8 7 4 4 5 8 11 11 12 12 9 8 8 9 11 11 9 7 7 7 7
9 10 11 12 13 14 14 13 13 12 11 11 12 13 12 10 9 7 8 12 13 13 11 10 8 6 7 8 10 11 12 11 10 9 8 9 10 10 9 7 5 5 5
11 11 11 12 13 14 16 16 15 15 15 14 14 14 14 13 13 10 9 10 14 14 14 13 12 10 8 8 9 12 13 12 12 11 11 11 10 9 9 8 5 5 3
15 15 14 13 14 14 14 17 18 17 17 17 16 15 16 16 16 14 12 11 12 15 16 15 15 14 12 10 10 11 13 13 13 12 12 12 11 10 9 9 8 6 4
17 17 16 16 16 17 16 18 18 18 20 20 20 18 17 17 18 18 15 14 13 13 16 18 17 17 16 14 12 12 12 14 14 13 13 13 13 12 10 11 11 9 7
20 20 19 19 18 19 19 19 20 20 20 20 22 22 20 19 19 20 19 17 15 13 14 17 19 19 19 17 15 15 14 13 15 15 15 16 16 14 13 13 12 12 10
19 21 22 22 22 21 20 20 21 21 21 21 21 22 22 21 21 21 21 21 20 19 18 18 18 20 22 20 18 19 18 17 16 16 18 18 19 18 16 14 13 14 13
15 17 19 22 24 24 23 23 22 23 23 23 22 21 21 22 22 24 23 22 22 23 22 21 20 20 20 22 23 24 22 21 20 19 19 21 21 22 21 18 15 14 15
14 15 16 17 19 22 25 25 25 25 26 26 26 24 23 23 22 22 25 25 24 24 24 24 23 23 22 22 22 25 27 25 24 24 23 21 25 25 24 22 19 17 16
15 17 17 18 18 19 20 22 25 27 28 28 29 29 28 27 26 25 24 24 26 27 26 26 27 26 26 25 24 23 24 26 28 29 28 27 27 27 26 26 24 22 20
17 18 19 20 20 20 21 20 21 23 26 29 30 31 31 31 30 29 29 28 27 26 28 29 29 28 29 27 27 26 26 25 25 28 30 30 30 29 29 29 27 27 25
18 19 20 20 21 21 22 22 21 21 22 24 26 28 30 32 32 33 33 32 32 32 30 31 32 32 32 31 31 27 29 28 27 27 29 31 33 33 31 31 30 30 28
18 18 21 21 20 20 21 21 21 21 21 22 23 24 25 27 29 32 33 34 34 35 34 34 33 33 34 35 34 32 32 30 30 30 29 30 34 35 34 32 33 32 31
21 20 20 20 19 18 18 18 17 17 17 18 19 22 24 26 27 28 30 31 33 35 37 37 36 36 36 36 37 37 35 34 33 31 32 32 32 35 36 35 35 34 34
28 26 24 23 22 21 22 21 21 19 20 19 19 19 21 22 25 29 31 32 32 33 34 37 38 39 38 39 38 37 38 37 36 35 37 33 34 33 36 38 37 37 37
30 31 29 28 26 26 27 26 26 25 25 25 24 23 24 25 26 26 27 31 35 36 36 36 36 38 39 40 40 41 39 38 38 38 37 37 37 34 35 37 38 39 39
32 32 31 33 33 33 33 34 33 32 31 31 32 31 30 30 31 31 32 32 33 34 39 42 42 40 40 39 39 39 42 42 40 39 39 40 39 41 39 37 38 40 41
36 36 37 36 35 37 39 38 38 38 39 40 38 37 37 36 35 36 37 39 40 38 39 39 42 45 46 45 44 42 41 41 43 43 43 42 41 41 43 45 42 40 41
41 40 40 41 41 42 41 40 43 44 45 44 44 43 42 41 41 42 43 44 45 45 42 41 42 43 46 48 48 48 46 44 43 43 43 44 44 42 43 46 43 45 44
47 47 48 48 48 48 47 46 45 43 46 48 49 49 49 49 49 50 50 49 49 50 49 47 43 43 42 45 49 50 50 50 48 47 46 44 45 46 45 44 46 48 48
52 52 52 53 54 54 54 53 52 52 53 52 52 52 53 53 54 54 54 52 51 51 54 54 52 49 48 48 46 48 51 52 52 51 50 49 47 45 45 46 47 47 49
54 55 57 57 58 59 59 59 58 58 58 59 59 60 58 57 57 58 58 57 55 54 56 56 56 54 52 51 50 49 49 50 53 54 54 54 53 51 49 48 48 49 51
58 58 58 60 62 63 64 64 63 63 62 63 64 65 65 65 62 61 61 61 61 60 59 59 59 58 56 55 54 53 53 51 52 54 56 57 57 56 54 53 51 50 50
64 65 67 69 70 71 71 71 71 70 68 67 68 67 66 68 68 68 66 66 65 64 64 62 62 61 59 58 57 57 57 56 55 54 56 59 59 58 57 57 56 57 54
74 75 76 79 81 81 81 82 82 79 75 73 71 70 69 70 70 71 73 71 70 69 67 66 66 66 64 62 61 60 60 59 58 59 58 57 61 61 61 60 60 59 59
Wind_Direction
272 265 258 256 259 260 260 253 243 230 228 238 237 227 227 228 227 212 211 215 213 208 215 223 191 170 151 159 169 171 171 174 172 169 171 167 157 142 128 117 111 104 97
269 267 261 254 255 259 256 260 263 256 243 237 240 246 239 237 238 235 216 211 216 226 224 225 214 203 186 178 178 179 182 185 182 188 190 182 179 165 143 128 116 105 102
274 270 268 262 256 256 260 259 260 262 261 253 246 246 246 246 243 243 237 220 220 230 238 226 225 212 208 200 194 196 196 197 201 206 210 201 190 188 172 157 148 123 110
279 273 270 264 264 259 259 259 259 257 261 262 256 248 248 246 250 247 240 236 228 229 234 233 227 223 217 211 210 210 211 212 215 216 215 207 202 196 196 190 188 171 148
276 271 267 264 264 263 259 257 255 255 254 259 259 259 254 250 248 248 244 239 242 234 236 238 232 228 225 221 219 219 222 222 223 220 217 210 208 203 202 208 211 201 199
266 269 272 269 262 260 259 258 255 252 251 251 256 256 256 255 252 248 245 244 243 240 235 238 240 233 227 228 227 229 224 224 224 223 222 219 212 210 208 216 219 218 213
274 272 272 270 266 259 254 253 254 255 253 250 249 253 252 252 254 253 247 244 243 241 246 242 239 241 236 230 231 237 239 231 230 228 227 227 221 217 223 230 230 228 223
278 275 273 271 270 267 258 250 248 250 252 252 249 249 252 250 250 251 250 245 242 240 245 244 243 241 242 238 232 235 239 242 240 237 234 231 230 225 227 234 232 230 228
272 273 270 269 269 269 266 260 253 248 248 248 249 249 249 251 248 247 249 248 244 243 243 241 243 243 243 240 237 239 238 241 245 244 243 240 235 234 232 233 235 237 235
276 276 274 272 270 268 267 265 260 255 250 248 249 250 250 249 249 249 247 247 245 246 246 244 244 247 246 246 243 241 242 244 244 246 247 245 243 237 235 236 235 238 241
284 281 276 272 271 269 267 264 260 258 256 253 249 249 251 252 254 254 252 251 249 246 247 248 247 245 244 246 246 248 248 246 246 247 246 246 244 242 238 236 237 239 239
279 278 279 278 275 272 268 265 264 260 256 255 254 252 251 252 254 256 257 256 255 252 248 247 247 247 246 246 245 246 248 249 246 244 243 244 244 244 242 237 236 238 238
273 270 269 271 272 271 270 269 265 262 261 259 257 255 254 253 252 253 254 255 256 256 254 252 248 247 248 250 248 246 247 247 248 248 244 241 242 242 241 244 240 239 243
268 265 264 263 263 265 265 264 262 262 260 260 261 259 258 256 255 254 253 253 253 254 257 256 253 252 249 248 247 245 246 248 248 248 248 245 244 243 242 241 243 243 242
254 257 257 260 255 257 259 260 260 263 265 265 263 261 261 261 260 258 256 254 253 253 253 255 256 253 253 252 251 248 247 247 246 249 249 249 247 246 244 242 243 244 245
266 253 251 253 258 255 252 254 256 261 267 268 274 276 273 265 262 261 260 259 256 253 252 253 254 257 256 254 253 253 251 248 249 251 246 248 250 249 248 245 244 244 245
267 270 260 255 261 263 262 258 258 259 260 264 264 266 271 277 280 275 269 263 259 257 255 252 251 253 256 258 257 256 254 251 248 248 251 247 247 249 249 249 247 247 247
269 266 265 268 260 254 255 258 257 258 259 260 262 263 263 266 271 275 278 279 273 266 261 259 256 252 252 253 256 257 256 255 252 249 250 251 251 249 249 251 250 249 247
269 266 267 266 266 266 266 259 259 258 258 260 261 261 261 263 265 269 273 276 276 274 267 263 261 259 257 254 253 253 255 257 255 252 251 252 252 251 251 251 252 253 254
268 268 267 266 265 265 262 266 268 265 264 263 263 263 262 261 264 266 271 275 278 275 270 265 262 260 259 258 257 256 253 252 255 257 255 251 251 251 253 255 253 252 252
267 267 267 266 265 263 263 263 261 264 269 269 267 265 264 263 264 268 271 274 274 272 270 267 263 261 261 261 259 257 256 256 252 252 255 255 252 252 251 253 255 255 260
268 267 266 265 265 265 265 264 262 262 263 262 264 265 264 263 263 265 267 269 269 268 268 268 266 264 261 262 262 261 257 255 255 254 253 254 255 253 253 253 254 254 251
269 268 266 265 265 265 264 264 263 263 263 263 263 262 262 264 264 264 264 266 266 265 264 264 264 264 262 261 260 260 260 259 255 254 254 254 253 254 251 251 252 253 254
268 268 267 265 264 264 264 264 264 263 263 264 264 263 262 261 261 261 260 260 262 264 264 263 262 261 260 259 259 259 259 259 257 255 255 253 253 254 254 252 250 251 253
271 270 269 269 269 269 267 265 264 264 263 263 263 263 262 261 261 259 258 258 257 259 262 262 260 259 258 258 259 260 260 259 258 257 253 253 252 253 254 254 254 253 253
276 275 273 272 271 270 270 270 269 267 266 264 262 260 259 259 258 258 257 256 257 258 259 260 259 258 257 257 259 260 261 260 259 257 256 252 251 253 251 252 254 254 254